Skip Page Navigation
NASA JPL Caltech
NASA Logo - Jet Propulsion Laboratory + View the NASA Portal
+ Center for Near-Earth Object Studies
JPL Home Earth Solar System Stars & Galaxies Technology
JPL Solar System Dynamics
BODIES ORBITS EPHEMERIDES TOOLS PHYSICAL DATA DISCOVERY FAQ SITE MAP
IMPORTANT: The SSD Announcement email list is now available. Major changes are coming in the near future, including possible hostname and/or URL changes. To be notified of such changes, subscribe to this email list.

Please visit this page for more details.


JPL Small-Body Database Browser
Search: [ help ]  
154098 (2002 DK13)
Classification: Main-belt Asteroid          SPK-ID: 2154098
Ephemeris | Orbit Diagram | Orbital Elements | Mission Design | Physical Parameters | Discovery Circumstances ]

[ hide orbit diagram ]

For accurate long-term ephemerides, please instead use our Horizons system.This orbit viewer was implemented using two-body methods, and hence should not be used for determining accurate long-term trajectories (over several years or decades) or planetary encounter circumstances.


[ revert to old Java-based viewer ]

Orbital Elements at Epoch 2459000.5 (2020-May-31.0) TDB
Reference: JPL 16 (heliocentric ecliptic J2000)
 Element Value Uncertainty (1-sigma)   Units 
e .08185854785346093 4.3566e-08  
a 2.77645611115405 1.8975e-08 au
q 2.549179445716112 1.2542e-07 au
i 2.44140778748599 4.667e-06 deg
node 252.9857548834983 0.00011668 deg
peri 169.0273156725717 0.00012112 deg
M 46.39297376243 3.1304e-05 deg
tp 2458782.736866760031
(2019-Oct-26.23686676)
0.00014666 TDB
period 1689.797432857699
4.63
1.7323e-05
4.743e-08
d
yr
n .2130432873194667 2.184e-09 deg/d
Q 3.003732776591987 2.0529e-08 au
  Orbit Determination Parameters
   # obs. used (total)      374  
   data-arc span      7057 days (19.32 yr)  
   first obs. used      2000-10-02  
   last obs. used      2020-01-28  
   planetary ephem.      DE431  
   SB-pert. ephem.      SB431-N16  
   condition code      0  
   norm. resid. RMS      .58593  
   source      ORB  
   producer      Otto Matic  
   solution date      2020-Feb-24 09:29:59  

Additional Information
 Earth MOID = 1.56214 au 
 Jupiter MOID = 2.2404 au 
 T_jup = 3.329 
[ show covariance matrix ]

Ephemeris | Orbit Diagram | Orbital Elements | Mission Design | Physical Parameters | Discovery Circumstances ]

Physical Parameter Table
Parameter Symbol Value Units Sigma Reference Notes
absolute magnitude H 16.0   n/a MPO412913  

154098 (2002 DK13)          Discovered 2002-Feb-16 by NEAT at Palomar
Reference: 20070402/Numbers.arcLast Updated: 2007-04-04

Alternate Designations
 2002 DK13 = 2005 UZ130 
Ephemeris | Orbit Diagram | Orbital Elements | Mission Design | Physical Parameters | Discovery Circumstances ]
ABOUT SSD CREDITS/AWARDS PRIVACY/COPYRIGHT GLOSSARY LINKS
FirstGov 2020-Jun-06 15:29 UT
(server date/time)  
NASA Home Page
Site Manager:   Ryan S. Park
Webmaster  Alan B. Chamberlin